Regional Weather Roundup
Issued by NWS Kansas City/Pleasant Hill, MO

Home | Current Version | Previous Version | Graphics & Text | Print | Product List | Glossary Off
Versions: 1 2 3 4 5 6 7 8 9 10 11 12 13 14 15 16 17 18 19 20 21 22 23 24 25 26 27 28 29 30 31 32 33 34 35 36 37 38 39 40 41 42 43 44 45 46 47 48 49 50

000
ASUS43 KEAX 270104
RWREAX

WEATHER ROUNDUP FOR EASTERN KANSAS AND NORTHWEST MISSOURI
NATIONAL WEATHER SERVICE KANSAS CITY/PLEASANT HILL MO
700 PM CST THU FEB 26 2015

KSZ040-057-103>105-MOZ028-029-037-043-270200-
...KANSAS CITY METROPOLITAN AREA...

CITY           SKY/WX    TMP DP  RH WIND       PRES   REMARKS
K.C. INTL      CLEAR     12  -1  56 N13       30.49R WCI  -3
K.C. DOWNTOWN  CLEAR     16  -1  47 N13       30.51R WCI   2
LEES SUMMIT    CLEAR     15   0  51 N12       30.48R WCI   2
OLATHE - IXD   CLEAR     14   0  53 N13       30.49R WCI   0
OLATHE - OJC   CLEAR     15  -1  49 N9        30.47R WCI   3
LAWRENCE       CLEAR     14  -1  51 N10       30.52R WCI   1

$$

MOZ001>008-011>017-020>025-030>033-038>040-044>046-053-054-270200-
...NORTHERN AND CENTRAL MISSOURI...

CITY           SKY/WX    TMP DP  RH WIND       PRES   REMARKS
ST. JOSEPH     CLEAR     10  -2  58 N12       30.54R WCI  -5
MOSBY          CLEAR     16   1  53 N12       30.51R WCI   3
WARRENSBURG    CLEAR     16   3  57 N7        30.49R WCI   6
WHITEMAN AFB   NOT AVBL
CLINTON        CLEAR     19   7  58 N9        30.48R WCI   9
SEDALIA        PTCLDY    15   3  59 N13       30.48R WCI   1
WARSAW         NOT AVBL
MARSHALL       CLEAR     18   3  53 N13       30.48R WCI   4
CHILLICOTHE      N/A     11  -1  58 N6        30.52R WCI   1
MOBERLY        CLEAR     14   0  52 NW12G17   30.47R WCI   0
KIRKSVILLE     CLEAR      8  -4  58 NW8       30.48R WCI  -4

$$

MOZ041-047>049-056>058-063>065-088>090-097-270200-
...EASTERN AND SOUTHERN MISSOURI...

CITY           SKY/WX    TMP DP  RH WIND       PRES   REMARKS
ST. LOUIS INTL MOCLDY    18   4  54 NW15      30.43R WCI   4
SPIRIT OF STL  PTCLDY    17   3  54 NW10      30.45R WCI   5
COLUMBIA       PTCLDY    16   3  56 N13       30.45R WCI   2
JEFFERSON CITY CLEAR     18   1  47 NW10      30.47R WCI   6
MEXICO         CLEAR     14   5  67 N15       30.45R WCI  -1
HANNIBAL       CLEAR      9  -6  52 NW8       30.47R WCI  -4
ROLLA          CLOUDY    18   4  54 N13       30.37R WCI   5
OSAGE BEACH    CLEAR     18   1  49 N7        30.43R WCI   8
SPRINGFIELD    CLEAR     20   2  45 N13       30.38R WCI   7
BRANSON        CLEAR     23   7  50 NW13      30.36R WCI  11
NEVADA         CLEAR     18   3  53 N8        30.47R WCI   7
JOPLIN         CLEAR     20   3  48 N8        30.43R WCI  10
WEST PLAINS    CLEAR     19   8  62 N6        30.35R WCI  11

$$

IAZ060-094-KSZ022-034>040-054-083-096-NEZ052-066-093-270200-
...KANSAS...SOUTHEAST NEBRASKA AND IOWA...

CITY           SKY/WX    TMP DP  RH WIND       PRES   REMARKS
TOPEKA         CLEAR     15  -1  49 N15       30.53R WCI   0
MANHATTAN      CLEAR     16   1  51 N8        30.52R WCI   5
EMPORIA        CLEAR     16   0  49 N12       30.47R WCI   3
CHANUTE        CLEAR     19   2  47 N8        30.47R WCI   9
WICHITA        PTCLDY    21  -4  33 N15       30.46R WCI   8
OMAHA          MOCLDY     8   2  76 N10       30.55R WCI  -6
LINCOLN        PTCLDY     8   1  73 N9        30.54R WCI  -5
FALLS CITY     CLEAR      9  -2  61 N9        30.53R WCI  -4
LAMONI         CLEAR      4  -5  66 N9        30.49R WCI -10
DES MOINES     PTCLDY     6  -5  60 N13       30.51R WCI -10

$$




USA.gov is the U.S. government's official web portal to all federal, state and local government web resources and services.